Zurück zum Katalog

STARLINK-36757

AktivKommunikationSSO
NORAD 67728·PAYLOAD·🇺🇸 United States

Gestartet Feb 11, 2026 von Vandenberg Space Force Base

Loading…

Nächste Überflüge (nächste 24 Stunden)

TLE

AktuellSource: CelesTrak SupGP

Epoche: Sep 15, 2026, 03:33 UTC

1 67728C 26026H   26258.14840278  .00005633  00000+0  17482-3 0  2582
2 67728  97.2842 310.0285 0000840  86.9626  90.3453 15.33441643    11

Verfolge STARLINK-36757 in Echtzeit mit AllMySat

Download on the App Store